Вернуться в каталог

FENGYUN 1C DEB

LostSSO
NORAD 37910·DEBRIS·🇨🇳 China

Запущен May 10, 1999 с Taiyuan Satellite Launch Center

Loading…

Ближайшие Пролёты (ближайшие 24 часа)

TLE

УстаревшееSource: Space-Track

Эпоха: Dec 8, 2011, 09:45 UTC

1 37910U 99025ENK 11342.40643757  .00002114  00000-0  10247-2 0  9996
2 37910  99.0233  38.7996 0051279 232.5082 191.6573 14.18836643153810

Отслеживайте FENGYUN 1C DEB в реальном времени с AllMySat

Download on the App Store